Flag for Germany Weather past 2 weeks in Mühlacker, Baden-Württemberg, Germany

Now
50 °F

Passing clouds.


Feels Like: 48 °F
Forecast: 37 / 60 °F
Wind: 6 mph from West

Location: Stuttgart-Echterdingen

Current Time: Sep 22, 2014 at 8:41:26 AM

Latest Report: Sep 22, 2014 at 7:50 AM


Visibility: N/A

Pressure: 30.12 "Hg

Humidity: 94%

Dew point: 48 °F

Location of MühlackerLocation

Historic Weather in Mühlacker — Graph

°F

Mühlacker temperature yesterday

Maximum temperature yesterday: 66 °F (at 12:20 PM)
Minimum temperature yesterday: 55 °F (at 7:50 PM)
Average temperature yesterday: 60 °F

Past Weeks' High & Low Weather Summary

 TemperatureHumidityPressure
High77 °F (Sep 8, 2:20 PM)100% (Sep 7, 7:20 AM)30.15 "Hg (Sep 7, 7:20 AM)
Low50 °F (Sep 22, 3:50 AM)52% (Sep 10, 6:20 PM)29.89 "Hg (Sep 17, 2:50 PM)
Average61 °F85%30.02 "Hg
* Reported Sep 7 7:20 AM — Sep 22 7:20 AM, Mühlacker, Weather by CustomWeather, © 2014

Note: Actual official high and low records may vary slightly from our data, if they occured in-between our weather recording intervals... More about our weather records

Advertising

Mühlacker weather history for previous 24 hours

 ConditionsComfort  
Time TempWeatherWind HumidityBarometerVisibility
7:20 AM
Sep 22
52 °FPassing clouds.7 mph88%30.12 "HgN/A
6:50 AM52 °FPassing clouds.9 mph88%30.12 "Hg6 mi
6:20 AM50 °FPassing clouds.9 mph88%30.12 "HgN/A
5:50 AM50 °FPassing clouds.8 mph88%30.12 "HgN/A
5:20 AM50 °FPartly cloudy.8 mph94%30.12 "HgN/A
4:50 AM52 °FPartly cloudy.7 mph88%30.12 "HgN/A
4:20 AM52 °FPassing clouds.9 mph88%30.09 "HgN/A
3:50 AM50 °FPassing clouds.9 mph94%30.09 "HgN/A
3:20 AM52 °FPassing clouds.7 mph94%30.09 "HgN/A
2:50 AM52 °FPassing clouds.6 mph94%30.09 "HgN/A
2:20 AM52 °FPassing clouds.3 mph94%30.12 "HgN/A
1:50 AM54 °FPassing clouds.9 mph88%30.12 "HgN/A
1:20 AM54 °FPassing clouds.10 mph94%30.09 "HgN/A
12:50 AM54 °FPartly cloudy.13 mph94%30.09 "HgN/A
12:20 AM55 °FPartly cloudy.15 mph94%30.09 "HgN/A
11:50 PM
Sep 21
55 °FLight rain. Passing clouds.12 mph94%30.09 "HgN/A
11:20 PM55 °FRain. Passing clouds.10 mph94%30.07 "Hg5 mi
10:20 PM55 °FLight rain. Partly cloudy.7 mph100%30.07 "HgN/A
9:50 PM55 °FLight rain. Partly cloudy.5 mph94%30.07 "HgN/A
9:20 PM55 °FRain. Mostly cloudy.5 mph94%30.07 "Hg5 mi
8:50 PM55 °FRain. Mostly cloudy.8 mph94%30.07 "HgN/A
8:20 PM55 °FRain. Low clouds.8 mph94%30.04 "HgN/A
7:50 PM55 °FRain. Broken clouds.15 mph94%30.01 "Hg4 mi
7:20 PM59 °FRain. Broken clouds.9 mph94%30.01 "Hg4 mi
6:50 PM59 °FRain. Broken clouds.9 mph94%29.98 "Hg4 mi
6:20 PM59 °FRain showers. Broken clouds.16 mph94%29.98 "HgN/A
5:50 PM63 °FSprinkles. Broken clouds.12 mph88%29.98 "HgN/A
5:20 PM63 °FSprinkles. Broken clouds.14 mph83%29.98 "HgN/A
4:20 PM66 °FBroken clouds.10 mph73%29.98 "HgN/A
3:50 PM66 °FBroken clouds.10 mph73%29.98 "HgN/A
3:20 PM66 °FBroken clouds.13 mph68%29.98 "HgN/A
2:50 PM66 °FBroken clouds.12 mph73%29.98 "HgN/A
2:20 PM66 °FBroken clouds.12 mph73%29.98 "HgN/A
1:50 PM66 °FScattered showers. Scattered clouds.12 mph68%29.98 "HgN/A
1:20 PM66 °FScattered showers. Scattered clouds.14 mph73%30.01 "HgN/A
12:50 PM66 °FScattered clouds.14 mph73%30.01 "HgN/A
12:20 PM66 °FScattered showers. Scattered clouds.10 mph78%30.01 "HgN/A
11:50 AM64 °FScattered showers. Scattered clouds.7 mph83%30.01 "HgN/A
11:20 AM64 °FPartly sunny.6 mph88%30.01 "HgN/A
10:50 AM63 °FScattered clouds.7 mph94%30.01 "HgN/A
10:20 AM63 °FScattered showers. Scattered clouds.6 mph88%30.01 "HgN/A
9:50 AM61 °FBroken clouds.6 mph94%30.01 "HgN/A
9:20 AM61 °FSprinkles. Broken clouds.5 mph94%30.01 "HgN/A
8:50 AM61 °FRain showers. Broken clouds.9 mph88%29.98 "HgN/A
8:20 AM59 °FScattered showers. Partly sunny.2 mph100%29.98 "HgN/A
Weather by CustomWeather, © 2014

See weather overviewHow to use our weather pages